Peoria, IL

12:33 PM CST on November 22, 2019 (GMT -0600)
Greater Peoria Regional

Weather History for KPIA - October, 2019

Change the Weather History Date:

Wednesday, October 23, 2019

  Actual Average Record
Temperature  
Mean Temperature 50 °F 52 °F  
Max Temperature 63 °F 62 °F 84 °F (1899)
Min Temperature 36 °F 42 °F 23 °F (1981)
Degree Days  
Heating Degree Days 16 14  
Month to date heating degree days 223 237  
Since 1 July heating degree days 224 327  
Cooling Degree Days 0 0  
Month to date cooling degree days 22 12  
Year to date cooling degree days 1232 1036  
Moisture  
Dew Point 37 °F    
Average Humidity 65    
Maximum Humidity 82    
Minimum Humidity 46    
Precipitation  
Precipitation T in 0.10 in 1.96 in (1957)
Month to date precipitation 1.44 2.06  
Year to date precipitation 42.64 30.16  
Snow  
Snow 0.00 in 0.00 in 3.30 in (1929)
Month to date snowfall 0.0 0.0  
Since 1 July snowfall 0.0 0.0  
Since 1 September snowfall 0.0 0.0  
Snow Depth 0.00 in    
Sea Level Pressure  
Sea Level Pressure 29.94 in    
Wind  
Wind Speed 5 mph ()    
Max Wind Speed 16 mph    
Max Gust Speed 21 mph    
Visibility 10.0 miles    
Events      
T = Trace of Precipitation, MM = Missing Value Source: Averaged Metar Reports

Daily Weather History Graph

Daily Weather History Graph

Search for Another Location

Airport or City:

Astronomy

Oct. 23, 2019 Rise Set
Actual Time 7:18 AM CDT 6:07 PM CDT
Civil Twilight 6:50 AM CDT 6:34 PM CDT
Nautical Twilight 6:18 AM CDT 7:06 PM CDT
Astronomical Twilight 5:46 AM CDT 7:38 PM CDT
Moon 1:34 AM CDT (10/23) 3:59 PM CDT (10/23)
Length of Visible Light 11h 44m
Length of Day
10h 48m
Waning Crescent, 26% of the Moon is Illuminated
Oct 23
Waning Crescent
Oct 27
New
Nov 4
First Quarter
Nov 12
Full
Nov 19
Last Quarter

Hourly Weather History & Observations

Time (CDT) Temp. Windchill Dew Point Humidity Pressure Visibility Wind Dir Wind Speed Gust Speed Precip Events Conditions
12:54 AM 42.1 °F 37.7 °F 30.0 °F 62% 29.91 in 10.0 mi WSW 6.9 mph - N/A   Clear
1:54 AM 39.9 °F 35.8 °F 30.9 °F 70% 29.92 in 10.0 mi WSW 5.8 mph - N/A   Clear
2:06 AM 39.2 °F 35.9 °F 30.2 °F 70% 29.91 in 10.0 mi WSW 4.6 mph - N/A   Clear
2:54 AM 39.0 °F 35.7 °F 30.9 °F 73% 29.92 in 10.0 mi SSW 4.6 mph - N/A   Clear
3:54 AM 37.0 °F - 30.9 °F 79% 29.93 in 10.0 mi Calm Calm - N/A   Clear
4:54 AM 37.0 °F 33.3 °F 32.0 °F 82% 29.94 in 10.0 mi SSW 4.6 mph - N/A   Clear
5:03 AM 37.4 °F 32.8 °F 32.0 °F 81% 29.94 in 10.0 mi SSW 5.8 mph - N/A   Clear
5:45 AM 37.4 °F 33.8 °F 30.2 °F 75% 29.95 in 10.0 mi South 4.6 mph - N/A   Clear
5:54 AM 36.0 °F 31.1 °F 30.9 °F 82% 29.96 in 10.0 mi South 5.8 mph - N/A   Clear
6:54 AM 37.9 °F 32.7 °F 32.0 °F 79% 29.97 in 10.0 mi South 6.9 mph - N/A   Mostly Cloudy
7:54 AM 41.0 °F 38.0 °F 34.0 °F 76% 29.97 in 10.0 mi SSW 4.6 mph - N/A   Overcast
8:54 AM 43.0 °F 39.5 °F 34.0 °F 71% 29.98 in 10.0 mi South 5.8 mph - N/A   Overcast
9:54 AM 48.9 °F - 37.9 °F 66% 29.98 in 10.0 mi SSW 6.9 mph - N/A   Partly Cloudy
10:54 AM 50.0 °F - 39.0 °F 66% 29.99 in 10.0 mi SSW 6.9 mph - N/A   Mostly Cloudy
11:54 AM 53.1 °F - 39.9 °F 61% 29.99 in 10.0 mi SW 6.9 mph - N/A   Scattered Clouds
12:54 PM 57.0 °F - 39.0 °F 51% 29.93 in 10.0 mi South 9.2 mph - 0.00 in   Scattered Clouds
1:54 PM 57.9 °F - 37.9 °F 47% 29.92 in 10.0 mi SW 6.9 mph - N/A   Overcast
2:54 PM 59.0 °F - 39.9 °F 49% 29.91 in 10.0 mi SW 11.5 mph - N/A   Mostly Cloudy
3:54 PM 62.1 °F - 41.0 °F 46% 29.89 in 10.0 mi SW 9.2 mph - N/A   Clear
4:54 PM 61.0 °F - 42.1 °F 50% 29.88 in 10.0 mi South 5.8 mph - N/A   Partly Cloudy
5:54 PM 57.0 °F - 43.0 °F 59% 29.89 in 10.0 mi Calm Calm - N/A   Partly Cloudy
6:54 PM 55.0 °F - 45.0 °F 69% 29.90 in 10.0 mi Calm Calm - N/A   Overcast
7:54 PM 57.0 °F - 44.1 °F 62% 29.91 in 10.0 mi SSW 4.6 mph - N/A   Overcast
8:54 PM 60.1 °F - 41.0 °F 49% 29.91 in 10.0 mi SSW 11.5 mph - N/A   Overcast
9:54 PM 60.1 °F - 41.0 °F 49% 29.94 in 10.0 mi WSW 9.2 mph - N/A   Overcast
10:54 PM 55.0 °F - 41.0 °F 59% 29.99 in 10.0 mi North 5.8 mph - N/A   Mostly Cloudy
11:54 PM 51.1 °F - 42.1 °F 71% 30.01 in 10.0 mi North 4.6 mph - N/A   Clear